Flag for Slovakia Weather past 2 weeks in Prešov, Slovakia

Now
54 °F

Sunny.


Feels Like: 49 °F
Forecast: 42 / 60 °F
Wind: 15 mph from North

Location: Kosice - Barca

Current Time: Apr 21, 2015 at 1:53:02 PM

Latest Report: Apr 21, 2015 at 1:30 PM


Visibility: 10 mi

Pressure: 30.07 "Hg

Humidity: 35%

Dew point: 27 °F

Location of PrešovLocation

Historic Weather in Prešov — Graph

°F

Prešov temperature yesterday

Maximum temperature yesterday: 57 °F (at 4:00 PM)
Minimum temperature yesterday: 36 °F (at 6:00 AM)
Average temperature yesterday: 49 °F

Past Weeks' High & Low Weather Summary

 TemperatureHumidityPressure
High79 °F (Apr 16, 4:00 PM)94% (Apr 17, 7:00 PM)30.42 "Hg (Apr 17, 7:00 PM)
Low30 °F (Apr 10, 6:00 AM)17% (Apr 9, 4:30 PM)29.74 "Hg (Apr 16, 4:30 PM)
Average50 °F51%30.12 "Hg
* Reported Apr 6 12:00 Noon — Apr 21 12:30 PM, Prešov, Weather by CustomWeather, © 2015

Note: Actual official high and low records may vary slightly from our data, if they occured in-between our weather recording intervals... More about our weather records

Advertising

Prešov weather history for previous 24 hours

 ConditionsComfort  
Time TempWeatherWind HumidityBarometerVisibility
12:30 PM
Tue, Apr 21
55 °FPassing clouds.16 mph31%30.07 "HgN/A
12:00 PM55 °FPassing clouds.17 mph31%30.07 "HgN/A
11:30 AM52 °FSunny.13 mph28%30.09 "Hg10 mi
11:00 AM52 °FPassing clouds.5 mph30%30.09 "HgN/A
10:30 AM50 °FPassing clouds.9 mph43%30.09 "HgN/A
10:00 AM48 °FPassing clouds.8 mph43%30.09 "HgN/A
9:30 AM48 °FPassing clouds.9 mph43%30.09 "HgN/A
9:00 AM46 °FPassing clouds.10 mph43%30.09 "HgN/A
8:30 AM46 °FPassing clouds.10 mph46%30.12 "HgN/A
8:00 AM45 °FSunny.10 mph46%30.12 "Hg10 mi
7:30 AM43 °FSunny.6 mph53%30.09 "Hg10 mi
7:00 AM43 °FSunny.6 mph53%30.09 "Hg10 mi
6:30 AM41 °FClear.7 mph57%30.09 "Hg10 mi
6:00 AM41 °FClear.5 mph61%30.09 "Hg10 mi
5:30 AM43 °FPassing clouds.9 mph53%30.09 "HgN/A
5:00 AM43 °FClear.10 mph57%30.09 "Hg10 mi
4:30 AM43 °FClear.12 mph57%30.09 "Hg10 mi
4:00 AM43 °FClear.13 mph57%30.07 "Hg10 mi
3:30 AM45 °FClear.12 mph53%30.07 "Hg10 mi
3:00 AM45 °FPartly cloudy.9 mph53%30.07 "HgN/A
2:30 AM46 °FClear.12 mph50%30.07 "Hg10 mi
2:00 AM46 °FPassing clouds.8 mph50%30.07 "HgN/A
1:30 AM46 °FPassing clouds.6 mph53%30.04 "HgN/A
1:00 AM46 °FPassing clouds.6 mph57%30.04 "HgN/A
12:30 AM46 °FPassing clouds.7 mph57%30.04 "HgN/A
12:00 AM46 °FClear.5 mph57%30.04 "Hg10 mi
11:30 PM
Mon, Apr 20
46 °FClear.8 mph57%30.04 "Hg10 mi
11:00 PM46 °FClear.12 mph57%30.01 "Hg10 mi
10:30 PM48 °FClear.17 mph50%30.01 "Hg10 mi
10:00 PM50 °FPassing clouds.18 mph47%30.01 "HgN/A
9:30 PM50 °FClear.14 mph43%29.98 "Hg10 mi
9:00 PM50 °FClear.12 mph43%29.98 "Hg10 mi
8:30 PM50 °FSunny.13 mph43%29.98 "Hg10 mi
8:00 PM52 °FPartly sunny.17 mph41%29.95 "HgN/A
7:30 PM52 °FBroken clouds.14 mph44%29.95 "HgN/A
7:00 PM50 °FScattered clouds.13 mph50%29.92 "HgN/A
6:30 PM52 °FScattered clouds.17 mph44%29.92 "HgN/A
6:00 PM54 °FLight rain. Partly sunny.17 mph38%29.92 "HgN/A
5:30 PM54 °FLight rain. Broken clouds.25 mph44%29.89 "HgN/A
5:00 PM55 °FSunny.23 mph36%29.89 "Hg10 mi
4:30 PM57 °FSunny.20 mph36%29.89 "Hg10 mi
4:00 PM57 °FSunny.17 mph36%29.89 "Hg10 mi
3:30 PM55 °FPassing clouds.16 mph36%29.89 "HgN/A
3:00 PM55 °FPartly sunny.17 mph38%29.89 "HgN/A
2:30 PM55 °FSunny.20 mph38%29.89 "Hg10 mi
2:00 PM54 °FSunny.18 mph41%29.89 "Hg10 mi
1:30 PM54 °FSunny.23 mph44%29.89 "Hg10 mi
1:00 PM55 °FSunny.24 mph41%29.89 "Hg10 mi
Weather by CustomWeather, © 2015

See weather overviewHow to use our weather pages